Location: Unspecified
(40.7945°N, 0.0000°E)
Time: 06:45:52
(UTC+00:00)

Tiros 1 despin weight - Pass Details

Date: 26 January 2021
Orbit: 593 x 642 km, 48.2° (Epoch: 06 March)

Event Time Altitude Azimuth Distance (km) Brightness Sun altitude
Rises 19:08:51 0° 298° (WNW) 2,853 ? -22.4°
Reaches altitude 10° 19:11:10 10° 296° (WNW) 1,941 ? -22.9°
Maximum altitude 19:15:35 68° 214° (SW) 642 ? -23.7°
Enters shadow 19:16:01 63° 175° (S) 666 ? -23.8°
